Location: Unspecified
(44.0704°N, 88.6889°W)
Time: 05:09:36
(UTC+02:00)

Altair - Pass Details

Date: 19 June 2019
Orbit: 1501 x 1683 km, 47.2° (Epoch: 17 July)

Event Time Altitude Azimuth Distance (km) Brightness Sun altitude
Rises 03:58:53 0° 220° (SW) 4,694 10.1 -3.5°
Reaches altitude 10° 04:01:58 10° 216° (SW) 3,735 9.5 -3.9°
Maximum altitude 04:11:05 54° 142° (SE) 1,885 7.7 -5.2°
Drops below altitude 10° 04:20:35 10° 69° (ENE) 3,887 9.4 -6.5°
Sets 04:23:52 0° 65° (ENE) 4,896 9.9 -6.9°
